PBO Station Position Time Series. Reference Frame : NAM14
Format Version,1.1.0
4-character ID,P227
Station name,SunolWildrCN2006
Begin Date, 2006-02-18
End Date, 2019-10-07
Release Date, 2019-10-08
Reference position, 37.5329746701 North Latitude, -121.7895984175 East Longitude, 707.43160 meters elevation,
Date, North (mm), East (mm), Vertical (mm), North Std. Deviation (mm), East Std. Deviation (mm),              Vertical Std. Deviation (mm), Quality,
2006-02-18,0.00, 0.00, 0.00, 2.04, 1.56, 7.27, repro,
2006-02-19,0.35, -0.40, 3.33, 2.03, 1.55, 7.23, repro,
2006-02-20,0.45, -0.67, 5.32, 2.04, 1.55, 7.28, repro,
2006-02-21,0.03, -0.68, 3.51, 2.03, 1.55, 7.25, repro,
2006-02-22,0.33, -0.13, 5.09, 2.05, 1.56, 7.29, repro,
2006-02-23,0.71, -0.35, 5.30, 2.05, 1.56, 7.30, repro,
2006-02-24,0.06, -1.12, 5.15, 2.03, 1.55, 7.25, repro,
2006-02-25,1.40, -0.41, 2.73, 2.04, 1.57, 7.29, repro,
2006-02-26,1.83, -0.28, -4.43, 2.05, 1.58, 7.31, repro,
2006-02-27,6.66, -2.83, 3.00, 2.08, 1.60, 7.43, repro,
2006-02-28,0.61, -1.30, 10.95, 2.11, 1.60, 7.48, repro,
2006-03-01,-0.02, 0.96, 1.02, 2.15, 1.63, 7.52, repro,
2006-03-02,1.90, 0.97, 0.02, 2.03, 1.57, 7.29, repro,
2006-03-03,0.22, 3.10, 12.25, 2.10, 1.58, 7.53, repro,
2006-03-04,0.60, -0.66, -3.57, 2.04, 1.58, 7.29, repro,
2006-03-05,-0.72, 1.08, 2.50, 2.05, 1.58, 7.34, repro,
2006-03-06,1.43, 0.05, -2.44, 2.03, 1.57, 7.26, repro,
2006-03-07,0.79, 0.59, 5.86, 2.01, 1.58, 7.28, repro,
2006-03-08,0.74, 1.01, -0.43, 2.01, 1.58, 7.29, repro,
2006-03-09,0.51, 0.14, 9.10, 2.02, 1.59, 7.29, repro,
2006-03-10,-0.86, 0.46, 8.09, 2.05, 1.59, 7.36, repro,
2006-03-11,-0.41, 0.96, 15.01, 2.07, 1.58, 7.35, repro,
2006-03-12,-0.18, 0.88, 9.48, 2.07, 1.59, 7.39, repro,
2006-03-13,0.60, 0.20, 1.41, 2.05, 1.58, 7.34, repro,
2006-03-14,0.22, 1.36, 3.35, 2.06, 1.58, 7.36, repro,
2006-03-15,1.26, 1.78, 5.35, 2.05, 1.60, 7.37, repro,
2006-03-16,0.84, -0.56, -1.46, 2.13, 1.64, 7.59, repro,
2006-03-17,-0.28, 1.74, -1.51, 2.13, 1.63, 7.54, repro,
2006-03-18,0.53, -1.25, -1.82, 2.06, 1.60, 7.34, repro,
2006-03-19,-0.66, -1.34, 1.01, 2.05, 1.61, 7.36, repro,
2006-03-20,-0.85, 0.90, 3.37, 2.06, 1.61, 7.41, repro,
2006-03-21,-0.89, 2.34, 3.81, 2.06, 1.63, 7.49, repro,
2006-03-22,-0.25, 0.01, -5.57, 2.06, 1.63, 7.47, repro,
2006-03-23,0.43, -0.82, -1.06, 2.11, 1.63, 7.50, repro,
2006-03-24,2.25, 1.48, -0.42, 2.10, 1.64, 7.52, repro,
2006-03-25,-0.09, -0.10, 6.02, 2.13, 1.68, 7.75, repro,
2006-03-26,-0.58, -0.05, 8.57, 2.10, 1.65, 7.53, repro,
2006-03-27,-0.50, -0.80, 10.20, 2.12, 1.65, 7.58, repro,
2006-03-28,-0.26, -0.78, 8.63, 2.04, 1.63, 7.37, repro,
2006-03-29,2.69, -0.44, 8.72, 1.98, 1.59, 7.19, repro,
2006-03-30,0.50, 0.13, 2.10, 1.98, 1.60, 7.25, repro,
2006-03-31,1.62, -0.18, 6.14, 1.99, 1.60, 7.27, repro,
2006-04-01,0.22, -0.34, 2.49, 2.00, 1.60, 7.30, repro,
2006-04-02,0.04, -1.14, 5.22, 2.01, 1.60, 7.32, repro,
2006-04-03,1.84, -0.04, 2.23, 1.98, 1.59, 7.24, repro,
2006-04-04,0.63, -0.51, 6.30, 2.01, 1.59, 7.26, repro,
2006-04-05,0.48, -0.36, 4.30, 2.02, 1.64, 7.52, repro,
2006-04-06,-0.00, -0.63, 1.16, 2.04, 1.63, 7.46, repro,
2006-04-07,1.27, 1.18, -3.96, 2.11, 1.65, 7.67, repro,
2006-04-08,3.56, 1.38, -3.33, 2.11, 1.65, 7.72, repro,
2006-04-09,0.68, -1.70, 5.51, 1.99, 1.58, 7.25, repro,
2006-04-10,0.73, -0.05, -0.37, 1.99, 1.60, 7.32, repro,
2006-04-11,2.49, -1.20, 4.23, 2.05, 1.64, 7.56, repro,
2006-04-12,6.03, -0.41, 0.93, 2.06, 1.63, 7.57, repro,
2006-04-13,-0.08, -0.94, 3.71, 1.99, 1.60, 7.31, repro,
2006-04-14,-0.24, -0.67, 9.89, 1.98, 1.59, 7.27, repro,
2006-04-15,0.72, 0.83, 9.17, 2.04, 1.62, 7.41, repro,
2006-04-16,-0.71, -0.34, 5.14, 2.00, 1.61, 7.38, repro,
2006-04-17,0.79, -0.63, 1.90, 1.98, 1.60, 7.27, repro,
2006-04-18,-0.31, -0.64, 1.42, 1.99, 1.59, 7.29, repro,
2006-04-19,-0.06, -1.23, -0.22, 1.98, 1.60, 7.32, repro,
2006-04-20,1.41, -1.76, 7.42, 2.01, 1.63, 7.43, repro,
2006-04-21,-0.29, -0.50, 7.97, 2.00, 1.61, 7.37, repro,
2006-04-22,0.76, -1.22, 2.54, 1.99, 1.59, 7.30, repro,
2006-04-23,-0.54, -1.12, 1.43, 2.01, 1.63, 7.42, repro,
2006-04-24,0.41, 0.17, 1.35, 2.04, 1.71, 7.66, repro,
2006-04-25,0.26, -1.05, 4.77, 2.05, 1.71, 7.63, repro,
2006-04-26,0.28, -1.14, -0.10, 2.03, 1.63, 7.45, repro,
2006-04-27,-1.67, -1.26, 5.99, 2.08, 1.64, 7.52, repro,
2006-04-28,0.36, -0.62, 2.11, 2.04, 1.59, 7.33, repro,
2006-04-29,0.74, -1.09, 2.89, 1.98, 1.59, 7.29, repro,
2006-04-30,0.35, -0.67, 9.13, 1.97, 1.58, 7.25, repro,
2006-05-01,1.27, -1.33, 4.80, 1.99, 1.58, 7.28, repro,
2006-05-02,-0.06, -1.98, 3.50, 1.98, 1.58, 7.27, repro,
2006-05-03,1.43, -1.12, 6.39, 1.98, 1.58, 7.26, repro,
2006-05-04,0.57, -1.72, 3.44, 1.98, 1.59, 7.32, repro,
2006-05-05,0.14, -1.24, 3.62, 1.98, 1.58, 7.32, repro,
2006-05-06,0.57, -0.94, 6.80, 1.97, 1.59, 7.30, repro,
2006-05-07,1.09, -1.53, 6.29, 1.99, 1.59, 7.31, repro,
2006-05-08,0.50, -0.68, 7.02, 2.00, 1.59, 7.32, repro,
2006-05-09,0.20, -1.58, 6.88, 2.04, 1.61, 7.38, repro,
2006-05-10,0.25, -1.31, 7.21, 1.98, 1.59, 7.31, repro,
2006-05-11,0.33, -1.22, 7.21, 1.98, 1.59, 7.30, repro,
2006-05-12,0.91, -1.27, 8.93, 1.97, 1.58, 7.25, repro,
2006-05-13,-0.06, -0.74, 9.47, 1.99, 1.59, 7.36, repro,
2006-05-14,-0.24, -1.67, 5.08, 1.98, 1.59, 7.30, repro,
2006-05-15,-0.32, -1.71, 5.68, 1.97, 1.59, 7.30, repro,
2006-05-16,-0.86, -1.26, 6.17, 2.00, 1.63, 7.44, repro,
2006-05-17,1.98, -1.47, 12.47, 2.00, 1.63, 7.45, repro,
2006-05-18,0.71, -1.08, 9.86, 2.00, 1.60, 7.36, repro,
2006-05-19,-0.22, -2.41, 11.26, 2.12, 1.64, 7.60, repro,
2006-05-20,1.80, 0.38, 8.77, 2.05, 1.60, 7.40, repro,
2006-05-21,2.67, -1.42, 15.90, 2.10, 1.64, 7.58, repro,
2006-05-22,-0.32, -2.87, 17.56, 2.06, 1.61, 7.48, repro,
2006-05-23,3.13, -2.61, 7.16, 2.06, 1.61, 7.46, repro,
2006-05-24,0.04, -0.90, 4.90, 2.05, 1.61, 7.43, repro,
2006-05-25,0.28, -1.50, 3.97, 2.16, 1.67, 7.76, repro,
2006-05-26,0.56, -2.77, 10.41, 2.10, 1.65, 7.67, repro,
2006-05-27,0.59, -1.50, 14.87, 2.06, 1.62, 7.47, repro,
2006-05-28,0.47, -1.67, 9.72, 2.04, 1.60, 7.38, repro,
2006-05-29,-0.02, -0.87, 6.68, 2.05, 1.62, 7.43, repro,
2006-05-30,0.97, -1.58, 3.59, 2.10, 1.65, 7.60, repro,
2006-05-31,0.02, -1.19, 3.50, 2.13, 1.68, 7.66, repro,
2006-06-01,0.28, -1.57, 5.75, 2.08, 1.65, 7.60, repro,
2006-06-02,0.82, -1.62, 6.04, 2.19, 1.69, 7.85, repro,
2006-06-03,0.75, -0.44, 6.05, 2.13, 1.66, 7.73, repro,
2006-06-04,0.21, -1.75, 7.85, 2.12, 1.64, 7.65, repro,
2006-06-05,0.15, -1.77, 11.54, 2.16, 1.68, 7.76, repro,
2006-06-06,-0.15, -1.03, 15.19, 2.10, 1.65, 7.65, repro,
2006-06-07,0.53, -1.43, 7.00, 2.12, 1.66, 7.71, repro,
2006-06-08,-0.05, -0.11, 4.64, 2.05, 1.60, 7.40, repro,
2006-06-09,-0.58, -0.73, 11.82, 2.13, 1.67, 7.68, repro,
2006-06-10,0.38, -2.73, 8.44, 2.07, 1.62, 7.47, repro,
2006-06-11,0.61, -2.17, 11.36, 2.10, 1.65, 7.61, repro,
2006-06-12,1.09, -1.35, 5.40, 2.11, 1.72, 7.79, repro,
2006-06-13,0.59, -0.62, 5.23, 2.08, 1.63, 7.52, repro,
2006-06-14,-0.05, -0.72, 6.61, 2.10, 1.64, 7.59, repro,
2006-06-15,0.20, -1.03, 13.56, 2.06, 1.61, 7.46, repro,
2006-06-16,0.96, -2.27, 16.73, 2.05, 1.62, 7.47, repro,
2006-06-17,1.21, -1.60, 18.52, 2.05, 1.62, 7.47, repro,
2006-06-18,-0.65, -1.05, 16.26, 2.07, 1.65, 7.64, repro,
2006-06-19,-0.97, -3.21, 10.74, 2.08, 1.65, 7.65, repro,
2006-06-20,0.01, -1.79, 13.33, 2.08, 1.65, 7.65, repro,
2006-06-21,-1.27, -1.94, 9.46, 2.09, 1.67, 7.72, repro,
2006-06-22,-1.52, -2.14, 7.36, 2.08, 1.67, 7.72, repro,
2006-06-23,-1.02, -2.38, 8.34, 2.07, 1.65, 7.64, repro,
2006-06-24,-0.32, -2.01, 8.44, 2.08, 1.64, 7.65, repro,
2006-06-25,0.74, -1.25, 7.14, 2.12, 1.73, 7.83, repro,
2006-06-26,-0.38, -2.90, 11.89, 2.09, 1.67, 7.70, repro,
2006-06-27,-0.62, -2.85, 15.28, 2.15, 1.75, 7.96, repro,
2006-06-28,-1.16, -2.50, 17.01, 2.08, 1.67, 7.73, repro,
2006-06-29,-0.54, -2.60, 13.10, 2.00, 1.62, 7.43, repro,
2006-06-30,-0.10, -1.40, 10.85, 2.06, 1.62, 7.56, repro,
2006-07-01,0.43, -1.78, 8.14, 2.04, 1.62, 7.52, repro,
2006-07-02,0.54, -1.43, 8.03, 2.07, 1.68, 7.70, repro,
2006-07-03,-0.21, -2.34, 4.24, 2.04, 1.63, 7.57, repro,
2006-07-04,0.21, -1.93, 4.39, 2.06, 1.63, 7.63, repro,
2006-07-05,-1.01, -1.61, 12.53, 2.06, 1.61, 7.60, repro,
2006-07-06,0.38, -0.79, 1.76, 2.05, 1.61, 7.52, repro,
2006-07-07,0.51, -2.22, 2.08, 2.03, 1.61, 7.50, repro,
2006-07-08,0.73, -1.73, 8.63, 2.04, 1.62, 7.57, repro,
2006-07-09,-2.34, -1.89, 9.20, 2.06, 1.63, 7.68, repro,
2006-07-10,-0.72, -1.57, 8.65, 2.06, 1.62, 7.62, repro,
2006-07-11,-0.24, -1.01, 13.17, 2.05, 1.62, 7.58, repro,
2006-07-12,1.29, -0.69, -0.07, 2.05, 1.63, 7.64, repro,
2006-07-13,0.95, -2.39, 6.67, 2.04, 1.62, 7.57, repro,
2006-07-14,-0.37, -1.16, 6.79, 2.04, 1.62, 7.62, repro,
2006-07-15,1.28, -1.79, 9.67, 2.05, 1.63, 7.70, repro,
2006-07-16,-0.27, -1.82, 10.40, 2.07, 1.62, 7.64, repro,
2006-07-17,-1.33, -2.09, 17.26, 2.08, 1.67, 7.87, repro,
2006-07-18,0.85, -3.12, 16.37, 2.00, 1.59, 7.36, repro,
2006-07-19,-1.65, -2.82, 20.15, 2.00, 1.62, 7.53, repro,
2006-07-20,1.59, -1.22, 8.96, 1.98, 1.59, 7.35, repro,
2006-07-21,0.10, -1.31, 11.62, 1.99, 1.59, 7.36, repro,
2006-07-22,0.15, -2.18, 4.90, 1.99, 1.58, 7.31, repro,
2006-07-23,-0.24, -1.45, 12.58, 2.03, 1.64, 7.59, repro,
2006-07-24,0.71, -4.62, 19.09, 1.96, 1.59, 7.29, repro,
2006-07-25,0.23, -2.91, 12.97, 1.98, 1.59, 7.28, repro,
2006-07-26,-0.75, -2.97, 17.28, 2.02, 1.64, 7.47, repro,
2006-07-27,0.29, -2.01, 7.13, 1.99, 1.58, 7.29, repro,
2006-07-28,0.74, -2.06, 12.55, 2.01, 1.59, 7.35, repro,
2006-07-29,3.21, -4.06, 7.94, 2.03, 1.65, 7.56, repro,
2006-07-30,1.64, -3.57, 10.18, 2.05, 1.71, 7.61, repro,
2006-07-31,-0.45, -1.91, 18.52, 2.01, 1.64, 7.40, repro,
2006-08-01,0.39, -2.33, 12.34, 1.98, 1.59, 7.34, repro,
2006-08-02,-0.48, -2.06, 13.38, 2.00, 1.64, 7.55, repro,
2006-08-03,-0.07, -0.94, 8.73, 2.06, 1.71, 7.86, repro,
2006-08-04,-1.11, -1.89, 13.20, 2.08, 1.67, 7.77, repro,
2006-08-05,1.33, -1.70, 7.87, 2.05, 1.69, 7.76, repro,
2006-08-06,0.12, -2.30, 3.83, 2.01, 1.64, 7.60, repro,
2006-08-07,0.24, -0.65, 4.95, 2.04, 1.64, 7.62, repro,
2006-08-08,0.15, -2.07, 5.07, 2.00, 1.60, 7.40, repro,
2006-08-09,-0.86, -0.74, 5.87, 2.03, 1.65, 7.56, repro,
2006-08-10,0.54, -0.85, 7.85, 1.99, 1.59, 7.36, repro,
2006-08-11,-0.89, -3.13, 18.34, 1.99, 1.60, 7.39, repro,
2006-08-12,0.30, -1.96, 11.05, 2.03, 1.65, 7.52, repro,
2006-08-13,-0.33, -1.86, 12.02, 2.00, 1.60, 7.38, repro,
2006-08-14,0.98, -2.04, 13.18, 2.02, 1.66, 7.55, repro,
2006-08-15,0.04, -1.46, 13.13, 2.10, 1.67, 7.62, repro,
2006-08-16,0.65, -1.21, 8.92, 2.11, 1.67, 7.70, repro,
2006-08-17,0.88, -2.47, 11.46, 2.11, 1.67, 7.66, repro,
2006-08-18,-1.49, -2.09, 12.59, 2.06, 1.69, 7.64, repro,
2006-08-19,-0.85, -2.11, 10.02, 1.98, 1.60, 7.33, repro,
2006-08-20,0.02, -1.87, 15.31, 1.97, 1.59, 7.29, repro,
2006-08-21,1.08, -1.92, 12.81, 2.00, 1.63, 7.43, repro,
2006-08-22,0.73, -1.59, 12.81, 2.00, 1.63, 7.42, repro,
2006-08-23,0.83, -2.38, 15.36, 1.99, 1.62, 7.41, repro,
2006-08-24,0.62, -1.84, 17.20, 1.99, 1.62, 7.37, repro,
2006-08-25,-1.01, -1.60, 20.39, 2.01, 1.66, 7.64, repro,
2006-08-26,0.12, -2.21, 17.11, 2.05, 1.69, 7.80, repro,
2006-08-27,0.65, -2.58, 14.54, 2.05, 1.72, 7.83, repro,
2006-08-28,-0.65, -2.59, 11.26, 2.06, 1.71, 7.80, repro,
2006-08-29,0.70, -2.47, 7.64, 2.06, 1.72, 7.82, repro,
2006-08-30,-0.07, -2.51, 12.44, 2.13, 1.74, 8.02, repro,
2006-08-31,-0.99, -0.97, 8.46, 2.06, 1.71, 7.82, repro,
2006-09-01,0.86, -3.41, 6.23, 2.12, 1.76, 8.07, repro,
2006-09-02,-0.16, -2.38, 6.29, 2.05, 1.71, 7.80, repro,
2006-09-03,-0.33, -2.74, 5.30, 2.06, 1.72, 7.84, repro,
2006-09-04,0.33, -1.39, 3.39, 2.10, 1.74, 7.90, repro,
2006-09-05,1.62, -0.87, 4.16, 2.13, 1.74, 8.00, repro,
2006-09-06,-0.64, -2.36, 7.00, 2.07, 1.73, 7.91, repro,
2006-09-07,-0.46, -1.99, 19.19, 2.10, 1.76, 8.06, repro,
2006-09-08,0.33, -2.40, 14.40, 2.09, 1.76, 7.97, repro,
2006-09-09,0.19, -2.34, 3.82, 2.02, 1.67, 7.51, repro,
2006-09-10,0.74, -1.15, 10.27, 2.03, 1.68, 7.64, repro,
2006-09-11,0.56, -2.53, 10.21, 2.05, 1.68, 7.66, repro,
2006-09-12,0.64, -1.99, 8.98, 2.03, 1.68, 7.62, repro,
2006-09-13,0.88, -2.35, 9.47, 2.03, 1.67, 7.53, repro,
2006-09-14,0.37, -2.40, 18.85, 2.12, 1.77, 7.86, repro,
2006-09-15,0.21, -2.62, 16.00, 2.07, 1.65, 7.56, repro,
2006-09-16,0.49, -1.85, 12.84, 2.01, 1.64, 7.47, repro,
2006-09-17,-0.12, -2.83, 17.32, 1.99, 1.63, 7.41, repro,
2006-09-18,-0.02, -2.49, 18.61, 2.01, 1.64, 7.49, repro,
2006-09-19,0.90, -2.02, 6.76, 1.99, 1.63, 7.40, repro,
2006-09-20,0.50, -3.16, 13.29, 1.99, 1.62, 7.35, repro,
2006-09-21,0.69, -2.72, 18.30, 2.04, 1.67, 7.60, repro,
2006-09-22,1.07, -2.51, 16.63, 2.13, 1.73, 7.86, repro,
2006-09-23,0.01, -2.69, 10.49, 2.05, 1.67, 7.65, repro,
2006-09-24,0.42, -2.27, 9.27, 2.11, 1.69, 7.71, repro,
2006-09-25,-0.89, -1.67, 10.56, 2.10, 1.68, 7.71, repro,
2006-09-26,1.54, -2.53, 10.76, 2.07, 1.65, 7.52, repro,
2006-09-27,1.38, -2.19, 11.28, 2.11, 1.68, 7.72, repro,
2006-09-28,-0.25, -2.70, 15.04, 2.09, 1.71, 7.71, repro,
2006-09-29,-0.88, -1.87, 16.21, 2.07, 1.66, 7.60, repro,
2006-09-30,-2.00, -1.88, 16.60, 2.04, 1.68, 7.68, repro,
2006-10-01,0.12, -2.17, 7.69, 2.06, 1.68, 7.70, repro,
2006-10-02,0.68, -1.94, 9.54, 2.08, 1.72, 7.66, repro,
2006-10-03,0.24, -2.20, 10.42, 2.16, 1.77, 7.93, repro,
2006-10-04,-1.08, -3.59, 17.59, 2.07, 1.66, 7.64, repro,
2006-10-05,-0.08, -2.47, 14.94, 2.07, 1.68, 7.79, repro,
2006-10-06,-1.45, -1.03, 5.39, 2.06, 1.67, 7.73, repro,
2006-10-07,-0.60, -3.05, 0.94, 2.11, 1.72, 7.94, repro,
2006-10-08,0.52, -2.70, 6.84, 2.09, 1.71, 7.86, repro,
2006-10-09,0.47, -3.89, 8.54, 2.11, 1.72, 7.95, repro,
2006-10-10,1.77, -2.13, 3.89, 2.01, 1.64, 7.51, repro,
2006-10-11,-0.76, -1.60, 10.95, 2.04, 1.67, 7.65, repro,
2006-10-12,-0.59, -1.72, 14.72, 2.06, 1.66, 7.54, repro,
2006-10-13,-1.62, -2.62, 16.86, 2.02, 1.63, 7.48, repro,
2006-10-14,0.75, -1.83, 7.14, 2.01, 1.66, 7.58, repro,
2006-10-15,-0.19, -2.64, 16.93, 2.00, 1.66, 7.62, repro,
2006-10-16,-1.44, -2.65, 18.99, 2.08, 1.71, 7.77, repro,
2006-10-17,-0.13, -2.57, 18.04, 2.04, 1.68, 7.77, repro,
2006-10-18,-0.57, -2.69, 15.07, 2.05, 1.75, 7.85, repro,
2006-10-19,0.46, -2.50, 9.35, 2.30, 1.84, 8.71, repro,
2006-10-20,0.17, -2.73, 10.96, 2.28, 1.90, 9.10, repro,
2006-10-21,-1.58, -2.61, 8.98, 2.27, 1.87, 8.64, repro,
2006-10-22,-0.78, -2.51, 13.83, 2.04, 1.71, 7.78, repro,
2006-10-23,0.30, -2.50, 8.84, 2.17, 1.78, 8.22, repro,
2006-10-24,-0.43, -2.53, 12.00, 2.18, 1.73, 8.19, repro,
2006-10-25,0.71, -1.69, 12.64, 2.23, 1.80, 8.48, repro,
2006-10-26,-0.49, -2.25, 14.90, 2.04, 1.72, 7.83, repro,
2006-10-27,0.39, -1.57, 6.32, 2.01, 1.68, 7.69, repro,
2006-10-28,-1.21, -1.74, 10.68, 2.20, 1.80, 8.41, repro,
2006-10-29,-0.66, -1.66, 14.99, 2.03, 1.70, 7.72, repro,
2006-10-30,-0.46, -2.13, 14.20, 1.96, 1.63, 7.42, repro,
2006-10-31,-1.00, -1.91, 8.09, 2.03, 1.71, 7.79, repro,
2006-11-01,0.70, -2.35, 12.60, 2.04, 1.73, 7.87, repro,
2006-11-02,1.28, 1.15, 6.46, 2.04, 1.72, 7.80, repro,
2006-11-03,2.17, -1.21, 20.27, 2.02, 1.70, 7.74, repro,
2006-11-04,-1.49, -1.51, 6.30, 2.07, 1.70, 7.76, repro,
2006-11-05,-1.19, -2.12, 2.20, 2.08, 1.76, 8.02, repro,
2006-11-06,-0.23, -2.75, 4.45, 2.01, 1.66, 7.64, repro,
2006-11-07,-0.02, -1.80, 8.01, 2.12, 1.78, 8.14, repro,
2006-11-08,-1.91, -1.70, 20.76, 2.08, 1.71, 7.89, repro,
2006-11-09,-1.59, -1.85, 9.29, 2.12, 1.78, 8.10, repro,
2006-11-10,-1.45, -2.73, 11.84, 2.03, 1.65, 7.65, repro,
2006-11-11,1.13, -2.47, 4.68, 2.07, 1.70, 7.86, repro,
2006-11-12,-2.28, -2.78, 11.44, 2.12, 1.78, 8.02, repro,
2006-11-13,-0.04, -0.59, 19.55, 2.09, 1.71, 7.77, repro,
2006-11-14,-0.53, -1.74, 8.92, 1.98, 1.63, 7.41, repro,
2006-11-15,-0.63, -1.67, 8.49, 1.96, 1.62, 7.31, repro,
2006-11-16,-0.50, -2.22, 15.51, 1.97, 1.63, 7.44, repro,
2006-11-17,-0.04, -2.20, 12.42, 1.96, 1.62, 7.34, repro,
2006-11-18,-0.08, -1.85, 5.71, 1.97, 1.62, 7.35, repro,
2006-11-19,-0.30, -2.44, 4.19, 1.95, 1.63, 7.33, repro,
2006-11-20,-1.03, -1.89, 7.94, 1.95, 1.62, 7.30, repro,
2006-11-21,-0.18, -1.83, 11.67, 1.96, 1.62, 7.35, repro,
2006-11-22,-1.57, -2.15, 7.31, 1.96, 1.63, 7.39, repro,
2006-11-23,-0.71, -2.28, 2.50, 2.00, 1.67, 7.61, repro,
2006-11-24,-0.90, -2.73, 5.38, 2.07, 1.71, 7.81, repro,
2006-11-25,-1.63, -2.76, 3.02, 1.99, 1.65, 7.45, repro,
2006-11-26,0.38, -1.05, 9.25, 2.06, 1.66, 7.60, repro,
2006-11-27,-0.45, -2.13, 12.77, 1.99, 1.64, 7.47, repro,
2006-11-28,-0.59, -1.42, 11.11, 1.96, 1.64, 7.41, repro,
2006-11-29,-0.43, -1.18, 3.05, 1.96, 1.63, 7.35, repro,
2006-11-30,-1.93, -1.09, 3.13, 1.96, 1.63, 7.34, repro,
2006-12-01,-2.33, -1.10, -3.90, 1.96, 1.64, 7.36, repro,
2006-12-02,-1.20, -2.65, 3.47, 1.99, 1.64, 7.44, repro,
2006-12-03,0.79, -1.99, 6.49, 1.97, 1.65, 7.44, repro,
2006-12-04,0.40, -1.88, -1.71, 2.00, 1.64, 7.43, repro,
2006-12-05,-1.11, -1.75, 1.10, 1.99, 1.70, 7.47, repro,
2006-12-06,0.04, -1.92, 1.94, 1.98, 1.71, 7.49, repro,
2006-12-07,-0.22, -2.55, 6.46, 2.00, 1.71, 7.58, repro,
2006-12-08,0.81, -1.31, 11.04, 2.01, 1.73, 7.68, repro,
2006-12-09,1.99, -0.83, -2.75, 2.04, 1.73, 7.68, repro,
2006-12-10,1.07, -1.51, 2.25, 2.03, 1.72, 7.64, repro,
2006-12-11,-0.25, -1.26, -0.02, 1.99, 1.67, 7.47, repro,
2006-12-12,1.31, 0.21, 3.32, 2.03, 1.73, 7.65, repro,
2006-12-13,1.23, -1.26, -3.37, 1.98, 1.72, 7.57, repro,
2006-12-14,1.35, -1.74, 1.60, 1.95, 1.66, 7.43, repro,
2006-12-15,1.20, -2.40, 8.62, 2.06, 1.75, 7.79, repro,
2006-12-16,-0.26, -2.63, 9.79, 2.03, 1.74, 7.63, repro,
2006-12-17,-0.21, -1.74, 3.88, 2.07, 1.84, 8.04, repro,
2006-12-18,-0.47, -1.02, 7.46, 2.28, 2.02, 8.88, repro,
2006-12-19,-1.09, -1.04, 3.46, 2.19, 2.08, 9.02, repro,
2006-12-20,-0.06, -1.58, 2.65, 2.12, 1.90, 8.13, repro,
2006-12-21,0.72, -2.34, 2.39, 1.97, 1.78, 7.59, repro,
2006-12-22,0.44, -2.22, 7.49, 2.12, 1.90, 8.15, repro,
2006-12-23,-0.07, -1.50, -0.74, 2.07, 1.84, 8.04, repro,
2006-12-24,-0.04, -0.48, 2.78, 1.95, 1.66, 7.42, repro,
2006-12-25,-0.38, -1.37, -1.84, 2.02, 1.79, 7.70, repro,
2006-12-26,-1.48, -3.02, 2.10, 2.04, 1.77, 7.88, repro,
2006-12-27,-0.32, -3.11, 5.23, 2.05, 1.79, 7.95, repro,
2006-12-28,-0.22, -0.93, 5.51, 2.28, 2.11, 9.04, repro,
2006-12-29,-1.15, -2.48, -8.43, 2.08, 1.80, 7.86, repro,
2006-12-30,0.23, -2.73, 2.70, 2.08, 1.79, 7.82, repro,
2006-12-31,1.15, -2.20, 2.78, 2.16, 1.91, 8.39, repro,
2007-01-01,0.17, -2.52, 4.52, 2.11, 1.87, 8.18, repro,
2007-01-02,0.84, -1.67, 3.50, 2.15, 1.95, 8.42, repro,
2007-01-03,-0.45, -1.84, 5.85, 2.01, 1.82, 7.81, repro,
2007-01-04,0.92, -1.66, 7.19, 1.96, 1.70, 7.57, repro,
2007-01-05,0.93, -2.79, 2.74, 1.99, 1.75, 7.66, repro,
2007-01-06,0.13, -1.38, 1.47, 1.96, 1.73, 7.53, repro,
2007-01-07,0.38, -1.84, -3.20, 1.99, 1.69, 7.53, repro,
2007-01-08,-0.31, -1.68, -0.31, 2.01, 1.73, 7.65, repro,
2007-01-09,-0.56, -1.68, -1.96, 1.99, 1.69, 7.47, repro,
2007-01-10,0.41, -2.69, 1.46, 2.03, 1.72, 7.58, repro,
2007-01-11,0.06, -2.14, 1.37, 2.04, 1.67, 7.57, repro,
2007-01-12,0.51, -1.61, 0.36, 1.95, 1.64, 7.35, repro,
2007-01-13,-1.72, -1.79, -8.47, 1.92, 1.60, 7.15, repro,
2007-01-14,0.52, -1.42, -3.05, 1.91, 1.60, 7.14, repro,
2007-01-15,0.48, -2.11, -3.72, 1.92, 1.61, 7.20, repro,
2007-01-16,1.18, -1.66, -0.52, 1.96, 1.61, 7.24, repro,
2007-01-17,-0.93, -2.96, -5.93, 1.95, 1.66, 7.37, repro,
2007-01-18,0.07, -1.90, -8.14, 1.99, 1.70, 7.49, repro,
2007-01-19,0.72, -1.32, -5.53, 1.97, 1.62, 7.44, repro,
2007-01-20,0.55, -2.03, 0.18, 2.00, 1.63, 7.54, repro,
2007-01-21,-0.33, -0.50, -1.88, 1.94, 1.62, 7.28, repro,
2007-01-22,1.41, -0.50, 1.43, 1.93, 1.60, 7.14, repro,
2007-01-23,0.47, -0.53, -5.91, 1.92, 1.60, 7.13, repro,
2007-01-24,0.07, -1.40, -5.53, 1.91, 1.60, 7.07, repro,
2007-01-25,0.07, -1.41, -2.65, 1.96, 1.65, 7.23, repro,
2007-01-26,-0.22, -1.45, -1.95, 1.97, 1.65, 7.32, repro,
2007-01-27,-1.45, -1.75, -3.18, 1.91, 1.61, 7.10, repro,
2007-01-28,-0.63, -1.87, -1.86, 1.93, 1.60, 7.13, repro,
2007-01-29,0.30, -1.07, -6.29, 1.92, 1.61, 7.13, repro,
2007-01-30,0.02, -0.92, 2.58, 1.92, 1.59, 7.04, repro,
2007-01-31,-0.26, -2.14, 6.34, 1.92, 1.59, 7.06, repro,
2007-02-01,-1.54, -0.02, 1.89, 1.96, 1.64, 7.26, repro,
2007-02-02,-1.03, -0.91, 0.64, 1.93, 1.62, 7.22, repro,
2007-02-03,0.05, -1.37, -3.81, 1.94, 1.61, 7.23, repro,
2007-02-04,-0.52, -0.69, 0.90, 1.92, 1.60, 7.11, repro,
2007-02-05,-0.55, -0.29, -2.50, 1.92, 1.60, 7.10, repro,
2007-02-06,0.37, -1.88, -1.70, 1.96, 1.62, 7.21, repro,
2007-02-07,0.57, -2.06, 0.03, 1.91, 1.60, 7.10, repro,
2007-02-08,1.34, -0.20, -8.88, 1.99, 1.67, 7.43, repro,
2007-02-09,2.27, 2.22, -7.38, 1.94, 1.65, 7.32, repro,
2007-02-10,1.54, 0.93, -1.05, 1.92, 1.61, 7.09, repro,
2007-02-11,1.92, -0.07, 7.65, 1.92, 1.62, 7.15, repro,
2007-02-12,-0.27, -0.38, -8.31, 1.89, 1.59, 7.03, repro,
2007-02-13,-1.25, -0.36, 0.39, 1.91, 1.59, 7.05, repro,
2007-02-14,-0.71, -0.36, -3.20, 1.91, 1.59, 7.03, repro,
2007-02-15,1.47, 0.82, 0.58, 1.96, 1.63, 7.26, repro,
2007-02-16,-0.25, -0.06, 3.70, 1.93, 1.62, 7.20, repro,
2007-02-17,-0.83, -0.44, 2.92, 1.95, 1.66, 7.23, repro,
2007-02-18,-0.67, -1.12, 7.59, 1.91, 1.61, 7.14, repro,
2007-02-19,-0.55, -0.55, 4.45, 1.93, 1.60, 7.13, repro,
2007-02-20,-0.20, -2.04, 3.88, 1.95, 1.65, 7.35, repro,
2007-02-21,0.04, 0.91, 9.16, 1.94, 1.61, 7.23, repro,
2007-02-22,0.73, -0.89, 2.14, 1.92, 1.62, 7.22, repro,
2007-02-23,0.24, 0.63, 6.04, 2.11, 1.71, 7.58, repro,
2007-02-24,-0.36, 1.36, -0.63, 1.92, 1.60, 7.12, repro,
2007-02-25,-1.21, -2.42, 2.95, 1.92, 1.59, 7.11, repro,
2007-02-26,-1.17, -0.85, 4.36, 1.92, 1.60, 7.11, repro,
2007-02-27,-0.68, -0.89, 13.49, 1.92, 1.60, 7.13, repro,
2007-02-28,-0.66, 0.55, 9.30, 1.92, 1.59, 7.11, repro,
2007-03-01,0.31, 0.63, -3.94, 2.05, 1.69, 7.68, repro,
2007-03-02,-0.84, -0.67, -1.83, 1.98, 1.67, 7.41, repro,
2007-03-03,-0.89, -0.20, -2.22, 1.95, 1.63, 7.26, repro,
2007-03-04,1.14, -0.58, 0.47, 1.94, 1.64, 7.27, repro,
2007-03-05,-0.63, 0.55, 1.00, 1.94, 1.63, 7.26, repro,
2007-03-06,0.08, -0.99, 5.04, 1.95, 1.64, 7.30, repro,
2007-03-07,-1.00, -0.45, 8.35, 1.94, 1.63, 7.26, repro,
2007-03-08,0.59, -0.66, 10.13, 1.96, 1.64, 7.31, repro,
2007-03-09,0.46, -0.39, -6.43, 1.94, 1.64, 7.28, repro,
2007-03-10,-0.33, -0.58, 0.71, 1.98, 1.67, 7.46, repro,
2007-03-11,-0.06, -0.50, 0.12, 1.97, 1.64, 7.34, repro,
2007-03-12,0.22, -1.12, 3.27, 1.95, 1.64, 7.30, repro,
2007-03-13,-0.21, -1.00, 6.67, 1.93, 1.61, 7.26, repro,
2007-03-14,1.40, 0.42, 0.83, 1.95, 1.64, 7.28, repro,
2007-03-15,-0.92, -1.01, 0.23, 1.96, 1.66, 7.35, repro,
2007-03-16,0.65, -1.36, 4.80, 1.96, 1.61, 7.18, repro,
2007-03-17,-0.78, -1.42, 6.90, 1.93, 1.59, 7.10, repro,
2007-03-18,0.63, -1.18, 14.68, 1.95, 1.62, 7.28, repro,
2007-03-19,0.21, -0.73, 11.28, 1.95, 1.63, 7.26, repro,
2007-03-20,0.16, 0.40, 9.12, 1.98, 1.61, 7.19, repro,
2007-03-21,-0.77, -1.17, 9.98, 2.02, 1.65, 7.41, repro,
2007-03-22,-0.53, -0.92, 11.82, 1.93, 1.58, 7.07, repro,
2007-03-23,-0.21, -2.36, 11.24, 1.95, 1.62, 7.29, repro,
2007-03-24,-0.34, -2.10, 12.87, 1.94, 1.63, 7.28, repro,
2007-03-25,-0.87, -0.22, 8.87, 1.93, 1.60, 7.14, repro,
2007-03-26,-0.54, -0.15, 0.77, 1.94, 1.59, 7.12, repro,
2007-03-27,1.04, -0.84, 0.58, 1.99, 1.60, 7.21, repro,
2007-03-28,-0.90, -1.90, 5.66, 1.98, 1.60, 7.19, repro,
2007-03-29,-1.97, -1.70, 5.32, 1.93, 1.59, 7.15, repro,
2007-03-30,0.07, -1.18, 2.21, 1.92, 1.59, 7.10, repro,
2007-03-31,0.48, -1.09, 6.22, 1.95, 1.59, 7.16, repro,
2007-04-01,0.36, -0.58, 5.58, 1.95, 1.62, 7.24, repro,
2007-04-02,-1.12, -1.51, 4.92, 1.94, 1.58, 7.11, repro,
2007-04-03,-0.28, -0.46, 2.86, 1.97, 1.66, 7.42, repro,
2007-04-04,-0.05, -1.11, 3.44, 2.03, 1.75, 7.61, repro,
2007-04-05,-0.13, -1.10, 3.52, 2.03, 1.74, 7.60, repro,
2007-04-06,-1.34, -1.09, 4.81, 2.03, 1.71, 7.57, repro,
2007-04-07,1.33, -1.49, 5.80, 2.03, 1.63, 7.34, repro,
2007-04-08,-1.96, 0.18, 7.18, 1.95, 1.62, 7.16, repro,
2007-04-09,-0.63, 0.46, 0.46, 1.92, 1.58, 7.04, repro,
2007-04-10,-0.20, -1.10, 10.49, 1.97, 1.62, 7.27, repro,
2007-04-11,-0.30, -0.35, 11.10, 1.95, 1.59, 7.18, repro,
2007-04-12,-0.05, -1.38, 14.37, 1.95, 1.59, 7.19, repro,
2007-04-13,-0.70, -0.89, 3.29, 1.92, 1.58, 7.04, repro,
2007-04-14,0.01, -0.88, 9.51, 1.93, 1.59, 7.12, repro,
2007-04-15,-0.98, -0.88, 6.21, 1.93, 1.58, 7.10, repro,